Overview Statistics Trail Chart Weather Telemetry Raw packets
 

This is the latest recevied weather packets stored in our database for station/object WD7OO. If no packets are shown the sender has not sent any weather packets the latest 10 day(s).

<< 83 84 85 86 87 88 89 >>
Time Temp. Humidity Pressure Rain* Wind** Luminosity Snow
1788019599 26.11° C 66% 1023.1 hPa 0 mm - 375 W/m² -
1788019298 26.11° C 72% 1023.2 hPa 0 mm - 412 W/m² -
1788018996 26.11° C 66% 1023.3 hPa 0 mm - 523 W/m² -
1788018691 26.11° C 66% 1023.2 hPa 0 mm - 644 W/m² -
1788018391 26.11° C 71% 1023.1 hPa 0 mm - 703 W/m² -
1788018086 26.11° C 67% 1023.3 hPa 0 mm - 674 W/m² -
1788017781 25.56° C 71% 1023.1 hPa 0 mm - 535 W/m² -
1788017478 25.56° C 69% 1023.3 hPa 0 mm - 544 W/m² -
1788017175 25.56° C 69% 1023.1 hPa 0 mm - 624 W/m² -
1788016869 25° C 69% 1022.9 hPa 0 mm - 574 W/m² -
1788016567 25.56° C 68% 1023 hPa 0 mm - 556 W/m² -
1788016263 25.56° C 70% 1022.9 hPa 0 mm - 490 W/m² -
1788015961 25° C 69% 1023 hPa 0 mm - 515 W/m² -
1788015656 25° C 69% 1023 hPa 0 mm - 495 W/m² -
1788015355 25.56° C 70% 1023 hPa 0 mm - 521 W/m² -
1788015050 25° C 71% 1023 hPa 0 mm - 513 W/m² -
1788014753 24.44° C 74% 1022.9 hPa 0 mm - 505 W/m² -
1788014445 23.89° C 74% 1023.1 hPa 0 mm - 488 W/m² -
1788014140 23.89° C 74% 1023.1 hPa 0 mm - 381 W/m² -
1788013839 23.89° C 75% 1022.9 hPa 0 mm - 488 W/m² -
1788013539 23.89° C 74% 1022.9 hPa 0 mm - 458 W/m² -
1788013238 23.33° C 76% 1022.9 hPa 0 mm - 451 W/m² -
1788012933 23.33° C 75% 1022.9 hPa 0 mm - 398 W/m² -
1788012633 23.33° C 76% 1022.8 hPa 0 mm - 377 W/m² -
1788012327 22.78° C 76% 1023.1 hPa 0 mm - 357 W/m² -

* Rain latest hour (hover to see other rain measurements)
** Current wind speed in m/s (hover to see current wind gust speed)